Regional Weather Roundup
Issued by NWS

Home | Current Version | Previous Version | Text Only | Print | Product List | Glossary Off
Versions: 1 2 3 4 5 6 7 8 9 10 11 12 13 14 15 16 17 18 19 20 21 22 23 24 25 26 27 28 29 30 31 32 33 34 35 36 37 38 39 40 41 42 43 44 45 46 47 48 49 50

031
ASUS43 KBIS 240410
RWRND

NORTH DAKOTA REGIONAL WEATHER ROUNDUP
NATIONAL WEATHER SERVICE BISMARCK ND
1100 PM CDT SAT SEP 23 2017

NOTE: "FAIR" INDICATES FEW OR NO CLOUDS BELOW 12,000 FEET WITH NO
SIGNIFICANT WEATHER AND/OR OBSTRUCTIONS TO VISIBILITY.


NDZ001>003-009>011-017-240500-
NORTHWEST NORTH DAKOTA

CITY           SKY/WX    TMP DP  RH WIND       PRES   REMARKS
WILLISTON      LGT RAIN  46  43  89 N6        30.12F
MINOT          LGT RAIN  48  46  93 N7        30.08S
MINOT AFB      LGT RAIN  48  46  92 N8        30.07R
$$

NDZ018>021-031>035-040>046-240500-
SOUTHWEST NORTH DAKOTA

CITY           SKY/WX    TMP DP  RH WIND       PRES   REMARKS
BISMARCK       LGT RAIN  49  48  97 N9        30.06R FOG
DICKINSON      LGT RAIN  45  44  97 NE7       30.08R FOG
GARRISON         N/A     47  45  93 N3        30.07F
HETTINGER ARPT LGT RAIN  45  42  89 N10       30.09R FOG
$$

NDZ004>008-012>016-024-026-027-054-240500-
NORTHEAST NORTH DAKOTA

CITY           SKY/WX    TMP DP  RH WIND       PRES   REMARKS
GRAND FORKS    LGT RAIN  54  53  97 N9        30.00F
GRND FRKS AFB  LGT RAIN  52  50  93 N9        30.03R
DEVILS LAKE    LGT RAIN  49  47  93 NE13      30.04F
$$

NDZ022-023-025-028>030-036>039-047>053-240500-
SOUTHEAST NORTH DAKOTA

CITY           SKY/WX    TMP DP  RH WIND       PRES   REMARKS
FARGO          CLOUDY    56  55  97 NE9       29.96F
JAMESTOWN      LGT RAIN  52  50  93 NE8       30.01R
$$





USA.gov is the U.S. government's official web portal to all federal, state and local government web resources and services.